Location: Newark
(41.0833°N, 9.3833°E)
Time: 12:08:36
(UTC+00:00)

Hubble Space Telescope - Pass Details

Date: 11 April 2020
Orbit: 536 x 540 km, 28.5° (Epoch: 01 June)

Event Time Altitude Azimuth Distance (km) Brightness Sun altitude
Rises 18:32:23 0° 237° (WSW) 2,666 4.9 -7.0°
Reaches altitude 10° 18:35:32 10° 211° (SSW) 1,776 3.6 -7.6°
Maximum altitude 18:37:43 14° 179° (S) 1,536 2.9 -7.9°
Drops below altitude 10° 18:39:53 10° 147° (SSE) 1,776 2.9 -8.3°
Enters shadow 18:40:40 - 139° (SE) 1,956 3.1 -8.5°
